1504929600.13,53716,14.19,73446.8,3.85,-24.47,-24.11,0,*76
1504929601.35,53717,14.19,73450.8,3.85,-24.77,-24.41,0,*71
1504929602.54,53718,14.19,73460.3,3.85,-24.93,-24.47,0,*72
1504929603.74,53719,14.19,73470.5,3.85,-24.77,-24.47,0,*79
1504929604.98,53720,14.19,73462.8,3.85,-24.71,-24.31,0,*74
1504929606.22,53721,14.19,73452.8,3.83,-24.57,-24.11,0,*75
1504929607.47,53722,14.19,73466.5,3.85,-24.71,-24.11,0,*74
1504929608.7,53723,14.19,73458.3,3.85,-24.77,-24.21,0,*70
1504929609.93,53724,14.19,73460.5,3.85,-24.57,-24.21,0,*75
1504929611.13,53725,14.19,73456.8,3.85,-24.61,-24.05,0,*77
1504929612.33,53726,14.19,73460.8,3.85,-24.57,-24.05,0,*71
1504929613.54,53727,14.19,73464.0,3.85,-24.61,-24.11,0,*70
1504929614.81,53728,14.19,73466.3,3.85,-24.71,-24.21,0,*7D
1504929616.02,53729,14.19,73462.0,3.85,-24.61,-24.11,0,*7E
1504929617.26,53730,14.19,73480.3,3.85,-24.71,-24.05,0,*72
1504929618.48,53731,14.19,73468.5,3.85,-24.57,-24.11,0,*72
1504929619.74,53732,14.19,73460.5,3.85,-24.71,-24.21,0,*76
1504929620.97,53733,14.19,73456.0,3.85,-24.77,-24.21,0,*71
1504929622.21,53734,14.19,73454.5,3.83,-24.87,-24.31,0,*7E
1504929623.46,53735,14.19,73452.3,3.85,-24.87,-24.41,0,*7E
1504929624.69,53736,14.19,73460.8,3.85,-24.77,-24.21,0,*74
1504929625.91,53737,14.19,73466.8,3.85,-24.77,-24.11,0,*76
1504929627.16,53738,14.19,73466.8,3.85,-24.87,-24.21,0,*75
1504929628.4,53739,14.19,73458.3,3.83,-25.09,-24.41,0,*73
1504929629.64,53740,14.19,73458.3,3.83,-25.09,-24.41,0,*7D
1504929630.91,53741,14.19,73462.8,3.83,-25.03,-24.41,0,*76
1504929632.18,53742,14.19,73458.5,3.83,-25.03,-24.41,0,*75
1504929633.4,53743,14.19,73462.5,3.83,-25.19,-24.47,0,*79
1504929634.59,53744,14.19,73464.8,3.85,-25.19,-24.61,0,*7C
1504929635.81,53745,14.19,73468.3,3.83,-25.23,-24.61,0,*72
1504929637.05,53746,14.19,73462.3,3.83,-25.29,-24.61,0,*7B
1504929638.27,53747,14.19,73460.8,3.81,-25.29,-24.61,0,*78
1504929639.47,53748,14.19,73462.3,3.81,-25.23,-24.47,0,*79
1504929640.66,53749,14.19,73462.8,3.81,-25.13,-24.47,0,*7B
1504929641.88,53750,14.19,73462.3,3.79,-25.19,-24.57,0,*7F
1504929643.1,53751,14.19,73458.8,3.83,-25.09,-24.31,0,*7A
1504929644.34,53752,14.19,73460.8,3.79,-25.19,-24.41,0,*7A
1504929645.56,53753,14.19,73460.8,3.81,-25.09,-24.25,0,*7F
1504929646.76,53754,14.19,73470.3,3.81,-25.13,-24.51,0,*70
1504929648.01,53755,14.19,73458.5,3.79,-25.19,-24.41,0,*7D
1504929649.23,53756,14.19,73450.5,3.79,-25.13,-24.31,0,*73
1504929650.45,53757,14.19,73450.8,3.79,-25.13,-24.31,0,*72
1504929651.7,53758,14.19,73454.5,3.79,-24.97,-24.21,0,*71
1504929652.95,53759,14.19,73442.0,3.79,-24.97,-24.21,0,*70
1504929654.2,53760,14.19,73450.3,3.79,-25.03,-24.31,0,*77
1504929655.44,53761,14.19,73458.8,3.79,-24.97,-24.15,0,*7C
1504929656.67,53762,14.19,73454.0,3.77,-24.83,-24.05,0,*75
1504929657.89,53763,14.19,73460.8,3.77,-24.83,-24.05,0,*74
1504929659.11,53764,14.19,73464.0,3.77,-24.57,-23.69,0,*77
1504929660.32,53765,14.19,73456.3,3.77,-23.75,-22.93,0,*75
1504929661.55,53766,14.19,73454.8,3.79,-23.89,-23.09,0,*79
1504929662.77,53767,14.19,73472.3,3.81,-24.35,-23.53,0,*70
1504929664.02,53768,14.19,73466.0,3.79,-23.89,-23.23,0,*7F
1504929665.26,53769,14.19,73468.5,3.79,-23.75,-22.93,0,*77
1504929666.51,53770,14.19,73462.3,3.81,-23.85,-23.03,0,*7F
1504929667.76,53771,14.19,73470.0,3.81,-23.99,-23.19,0,*78
1504929668.98,53772,14.19,73476.0,3.81,-23.99,-23.13,0,*71
1504929670.21,53773,14.19,73468.5,3.81,-24.25,-23.39,0,*78
1504929671.45,53774,14.19,73466.8,3.83,-24.31,-23.43,0,*75
1504929672.65,53775,14.19,73480.0,3.85,-24.47,-23.59,0,*78
1504929673.9,53776,14.19,73466.8,3.85,-24.25,-23.29,0,*78
1504929675.11,53777,14.19,73452.3,3.85,-24.31,-23.43,0,*70
1504929676.37,53778,14.19,73462.3,3.83,-24.47,-23.49,0,*72
1504929677.59,53779,14.19,73462.5,3.85,-24.61,-23.65,0,*7F
1504929678.81,53780,14.19,73456.0,3.85,-24.61,-23.49,0,*77
1504929680.09,53781,14.19,73458.3,3.83,-24.25,-23.29,0,*76
1504929681.34,53782,14.19,73460.8,3.85,-24.25,-23.33,0,*78
1504929682.57,53783,14.19,73464.0,3.85,-24.47,-23.49,0,*70
1504929683.83,53784,14.19,73466.3,3.83,-24.25,-23.13,0,*7A
1504929685.06,53785,14.19,73462.5,3.85,-24.25,-23.13,0,*7D
1504929686.31,53786,14.19,73466.8,3.83,-24.31,-23.19,0,*77
1504929687.57,53787,14.19,73468.8,3.83,-24.31,-23.19,0,*76
1504929688.8,53788,14.19,73468.3,3.85,-24.47,-23.33,0,*76
1504929690.03,53789,14.19,73472.5,3.83,-24.31,-23.13,0,*72
1504929691.25,53790,14.19,73468.5,3.85,-24.11,-23.13,0,*7E
1504929692.49,53791,14.19,73466.0,3.85,-23.59,-22.47,0,*74
1504929693.69,53792,14.19,73466.3,3.85,-24.05,-22.93,0,*70
1504929694.93,53793,14.19,73454.5,3.87,-24.57,-23.53,0,*79
1504929696.2,53794,14.19,73456.8,3.87,-24.67,-23.53,0,*7D
1504929697.44,53795,14.19,73456.8,3.87,-23.89,-22.73,0,*78
1504929698.72,53796,14.19,73448.0,3.87,-23.69,-22.47,0,*72
1504929699.94,53797,14.19,73450.3,3.89,-23.69,-22.63,0,*7B
1504929701.14,53798,14.19,73462.3,3.89,-23.89,-22.93,0,*75
1504929702.37,53799,14.19,73458.3,3.89,-24.41,-23.13,0,*7E
1504929703.63,53800,14.19,73460.8,3.87,-24.41,-23.43,0,*7A
1504929704.85,53801,14.19,73438.8,3.89,-24.67,-23.59,0,*7A
1504929706.07,53802,14.19,73436.0,3.93,-24.83,-23.79,0,*7A
1504929707.32,53803,14.19,73438.5,3.89,-24.67,-23.69,0,*7B
1504929708.57,53804,14.19,73430.5,3.87,-24.83,-23.75,0,*75
1504929709.81,53805,14.19,73426.8,3.87,-24.87,-23.89,0,*73
1504929711.01,53806,14.19,73398.8,3.89,-24.57,-23.59,0,*7E
1504929712.21,53807,14.19,73402.0,3.89,-24.57,-23.59,0,*7F
1504929713.46,53808,14.19,73398.5,3.89,-24.67,-23.53,0,*79
1504929714.69,53809,14.19,73396.5,3.89,-24.51,-23.53,0,*7D
1504929715.96,53810,14.19,73382.8,3.87,-24.71,-23.69,0,*70
1504929717.19,53811,14.19,73396.3,3.89,-24.83,-23.59,0,*71
1504929718.4,53812,14.19,73390.5,3.89,-24.51,-23.39,0,*7B
1504929719.6,53813,14.19,73396.0,3.89,-24.51,-23.39,0,*7A
1504929720.8,53814,14.19,73400.8,3.93,-24.47,-23.39,0,*71
1504929722.03,53815,14.19,73400.5,3.93,-24.51,-23.49,0,*70
1504929723.3,53816,14.19,73420.5,3.95,-24.41,-23.29,0,*72
1504929724.52,53817,14.19,73414.8,3.93,-24.51,-23.53,0,*79
1504929725.77,53818,14.19,73414.3,3.93,-24.83,-23.69,0,*70
1504929726.99,53819,14.19,73418.5,3.93,-24.77,-23.65,0,*76
1504929728.2,53820,14.19,73428.5,3.93,-24.97,-23.85,0,*7C
1504929729.41,53821,14.19,73440.8,3.93,-24.93,-23.95,0,*78
1504929730.65,53822,14.19,73446.5,3.89,-25.03,-23.99,0,*74
1504929731.85,53823,14.19,73448.5,3.89,-25.13,-24.05,0,*76
1504929733.08,53824,14.19,73450.0,3.89,-25.13,-23.99,0,*73
1504929734.3,53825,14.19,73452.5,3.89,-24.97,-23.99,0,*7F
1504929735.54,53826,14.19,73454.8,3.87,-25.03,-24.05,0,*7C
1504929736.78,53827,14.19,73458.0,3.87,-25.03,-24.05,0,*7D
1504929738.0,53828,14.19,73462.0,3.89,-25.13,-24.15,0,*7C
1504929739.27,53829,14.19,73460.3,3.87,-25.03,-23.99,0,*71
1504929740.51,53830,14.19,73454.5,3.87,-25.23,-24.15,0,*78
1504929741.72,53831,14.19,73456.5,3.89,-25.19,-24.15,0,*7E
1504929742.96,53832,14.19,73456.0,3.87,-25.23,-24.15,0,*7A
1504929744.2,53833,14.19,73454.0,3.87,-25.19,-24.25,0,*71
1504929745.44,53834,14.19,73454.5,3.87,-25.13,-24.15,0,*7F
1504929746.67,53835,14.19,73450.8,3.87,-25.19,-24.15,0,*74
1504929747.87,53836,14.19,73460.5,3.85,-25.19,-24.31,0,*73
1504929749.08,53837,14.19,73462.8,3.85,-25.29,-24.31,0,*71
1504929750.28,53838,14.19,73456.0,3.85,-25.09,-24.05,0,*7B
1504929751.49,53839,14.19,73446.8,3.85,-25.09,-24.11,0,*7F
1504929752.71,53840,14.19,73448.5,3.83,-25.09,-24.05,0,*72
1504929753.93,53841,14.19,73448.3,3.83,-25.09,-24.05,0,*73
1504929755.15,53842,14.19,73452.3,3.85,-25.03,-24.05,0,*7C
1504929756.4,53843,14.19,73452.8,3.83,-25.19,-24.21,0,*76
1504929757.64,53844,14.19,73452.5,3.83,-25.19,-24.21,0,*71
1504929758.86,53845,14.19,73448.5,3.83,-25.19,-24.31,0,*71
1504929760.07,53846,14.19,73454.8,3.83,-25.23,-24.31,0,*7B
1504929761.29,53847,14.19,73468.5,3.83,-25.23,-24.31,0,*7A
1504929762.51,53848,14.19,73462.8,3.83,-25.23,-24.31,0,*75
1504929763.77,53849,14.19,73460.3,3.83,-25.29,-24.41,0,*79
1504929765.02,53850,14.19,73462.5,3.83,-25.19,-24.21,0,*74
1504929766.24,53851,14.19,73468.3,3.83,-25.23,-24.31,0,*7D
1504929767.45,53852,14.19,73464.3,3.81,-25.09,-24.15,0,*72
1504929768.7,53853,14.19,73462.3,3.79,-25.13,-24.21,0,*78
1504929769.97,53854,14.19,73460.8,3.79,-25.03,-24.15,0,*79
1504929771.18,53855,14.19,73462.3,3.81,-24.97,-24.15,0,*73
1504929772.4,53856,14.19,73460.0,3.81,-25.09,-24.11,0,*72
1504929773.61,53857,14.19,73458.5,3.81,-25.09,-24.11,0,*73
1504929774.84,53858,14.19,73458.5,3.81,-25.09,-24.25,0,*7B
1504929776.05,53859,14.19,73454.5,3.81,-24.97,-24.15,0,*7F
1504929777.29,53860,14.19,73456.3,3.79,-24.97,-24.15,0,*72
1504929778.53,53861,14.19,73460.8,3.79,-24.97,-24.15,0,*73
1504929779.77,53862,14.19,73440.3,3.79,-24.97,-24.15,0,*70
1504929781.02,53863,14.19,73446.5,3.79,-25.13,-24.21,0,*7B
1504929782.27,53864,14.19,73436.8,3.79,-25.13,-24.21,0,*7C
1504929783.53,53865,14.19,73436.8,3.79,-25.13,-24.21,0,*7D
1504929784.74,53866,14.19,73444.0,3.81,-24.97,-24.15,0,*73
1504929786.02,53867,14.19,73442.8,3.79,-25.03,-24.21,0,*7E
1504929787.24,53868,14.19,73434.3,3.79,-24.97,-24.05,0,*7B
1504929788.48,53869,14.19,73434.3,3.79,-24.97,-24.15,0,*7B
1504929789.75,53870,14.19,73444.3,3.79,-25.03,-24.15,0,*7F
1504929791.02,53871,14.19,73422.5,3.79,-25.03,-24.21,0,*79
1504929792.29,53872,14.19,73418.0,3.79,-25.03,-24.15,0,*7D
1504929793.53,53873,14.19,73414.0,3.79,-24.97,-24.15,0,*70
1504929794.78,53874,14.19,73420.3,3.79,-25.13,-24.21,0,*7D
1504929796.03,53875,14.19,73412.8,3.75,-25.19,-24.25,0,*7E
1504929797.26,53876,14.19,73414.3,3.77,-25.13,-24.21,0,*71
1504929798.48,53877,14.19,73416.5,3.77,-25.13,-24.21,0,*70
1504929799.7,53878,14.19,73396.0,3.77,-24.97,-24.15,0,*75
1504929800.94,53879,14.19,73412.0,3.77,-24.87,-24.15,0,*75
1504929802.16,53880,14.19,73434.5,3.77,-24.87,-24.05,0,*72
1504929803.35,53881,14.19,73436.8,3.77,-24.97,-24.05,0,*72
1504929804.57,53882,14.19,73440.0,3.77,-25.03,-24.05,0,*7D
1504929805.82,53883,14.19,73452.8,3.77,-25.03,-23.99,0,*7E
1504929807.04,53884,14.19,73448.8,3.75,-24.77,-23.79,0,*77
1504929808.26,53885,14.19,73458.3,3.77,-24.83,-23.89,0,*70
1504929809.51,53886,14.19,73456.3,3.77,-24.67,-23.69,0,*77
1504929810.73,53887,14.19,73454.0,3.77,-24.41,-23.39,0,*77
1504929811.96,53888,14.19,73448.8,3.79,-24.35,-23.39,0,*75
1504929813.19,53889,14.19,73448.5,3.79,-24.51,-23.59,0,*70
1504929814.45,53890,14.19,73458.5,3.79,-24.71,-23.75,0,*74
1504929815.72,53891,14.19,73460.3,3.79,-24.67,-23.69,0,*7F
1504929816.96,53892,14.19,73460.8,3.81,-24.67,-23.69,0,*7B
1504929818.19,53893,14.19,73470.8,3.81,-24.47,-23.69,0,*78
1504929819.43,53894,14.19,73466.3,3.79,-23.69,-22.93,0,*77
1504929820.66,53895,14.19,73448.3,3.79,-24.31,-23.59,0,*7B
1504929821.88,53896,14.19,73440.3,3.81,-23.65,-22.87,0,*7B
1504929823.1,53897,14.19,73418.0,3.81,-23.69,-23.13,0,*7A
1504929824.36,53898,14.19,73404.0,3.81,-23.99,-23.23,0,*79
1504929825.58,53899,14.19,73396.0,3.83,-23.59,-22.93,0,*7C
1504929826.81,53900,14.19,73414.8,3.83,-23.43,-22.67,0,*7D
1504929828.03,53901,14.19,73422.3,3.85,-23.29,-22.67,0,*76
1504929829.28,53902,14.19,73412.8,3.87,-23.53,-22.93,0,*71
1504929830.54,53903,14.19,73430.3,3.87,-23.75,-23.23,0,*7E
1504929831.76,53904,14.19,73444.8,3.89,-24.35,-23.69,0,*7A
1504929833.0,53905,14.19,73440.5,3.89,-24.51,-23.85,0,*7B
1504929834.22,53906,14.19,73440.3,3.87,-24.51,-23.89,0,*7A
1504929835.49,53907,14.19,73452.0,3.87,-24.67,-23.99,0,*7F
1504929836.76,53908,14.19,73448.8,3.87,-24.83,-24.15,0,*79
1504929838.03,53909,14.19,73434.3,3.87,-24.83,-24.25,0,*7B
1504929839.27,53910,14.19,73438.8,3.87,-24.87,-24.35,0,*76
1504929840.5,53911,14.19,73436.8,3.89,-25.03,-24.51,0,*76
1504929841.7,53912,14.19,73440.3,3.89,-25.13,-24.51,0,*74
1504929842.92,53913,14.19,73446.8,3.87,-25.13,-24.51,0,*7B
1504929844.16,53914,14.19,73438.8,3.87,-24.87,-24.35,0,*72
1504929845.37,53915,14.19,73442.0,3.87,-24.97,-24.35,0,*72
1504929846.64,53916,14.19,73436.3,3.87,-25.03,-24.41,0,*7E
1504929847.83,53917,14.19,73434.8,3.85,-25.19,-24.57,0,*71
1504929849.03,53918,14.19,73440.0,3.85,-25.19,-24.57,0,*7E
1504929850.24,53919,14.19,73438.0,3.87,-25.13,-24.57,0,*77
1504929851.47,53920,14.19,73436.0,3.85,-25.23,-24.71,0,*78
1504929852.66,53921,14.19,73424.0,3.85,-25.23,-24.61,0,*78
1504929853.88,53922,14.19,73416.3,3.85,-25.23,-24.71,0,*7A
1504929855.11,53923,14.19,73418.0,3.85,-25.39,-24.71,0,*70
1504929856.37,53924,14.19,73430.8,3.87,-24.87,-24.41,0,*72
1504929857.6,53925,14.19,73434.3,3.85,-25.03,-24.31,0,*7B
1504929858.81,53926,14.19,73438.5,3.83,-25.19,-24.57,0,*75
1504929860.06,53927,14.19,73436.8,3.85,-25.03,-24.41,0,*7E
1504929861.27,53928,14.19,73430.5,3.83,-25.09,-24.57,0,*7A
1504929862.47,53929,14.19,73426.5,3.85,-25.19,-24.61,0,*79
1504929863.66,53930,14.19,73438.0,3.85,-25.09,-24.47,0,*74
1504929864.91,53931,14.19,73440.8,3.85,-25.03,-24.41,0,*79
1504929866.13,53932,14.19,73438.0,3.83,-25.09,-24.47,0,*70
1504929867.35,53933,14.19,73434.0,3.83,-25.09,-24.47,0,*71
1504929868.57,53934,14.19,73436.3,3.85,-25.03,-24.47,0,*7A
1504929869.76,53935,14.19,73434.0,3.85,-25.19,-24.61,0,*74
1504929870.96,53936,14.19,73428.5,3.85,-25.09,-24.61,0,*76
1504929872.18,53937,14.19,73434.0,3.83,-25.09,-24.61,0,*71
1504929873.42,53938,14.19,73440.3,3.83,-25.03,-24.61,0,*74
1504929874.68,53939,14.19,73430.0,3.83,-24.71,-24.05,0,*73
1504929875.9,53940,14.19,73452.8,3.83,-24.57,-24.05,0,*79
1504929877.13,53941,14.19,73444.0,3.83,-24.47,-24.05,0,*79
1504929878.35,53942,14.19,73444.8,3.85,-24.21,-23.79,0,*70
1504929879.58,53943,14.19,73444.3,3.85,-24.41,-23.89,0,*78
1504929880.83,53944,14.19,73446.0,3.83,-24.41,-23.79,0,*76
1504929882.08,53945,14.19,73436.8,3.83,-24.41,-23.89,0,*78
1504929883.33,53946,14.19,73444.3,3.83,-24.25,-23.75,0,*7A
1504929884.58,53947,14.19,73444.3,3.87,-23.85,-23.39,0,*7A
1504929885.78,53948,14.19,73442.5,3.85,-23.43,-22.93,0,*7C
1504929887.03,53949,14.19,73438.5,3.87,-23.43,-23.03,0,*77
1504929888.29,53950,14.19,73434.0,3.87,-23.99,-23.43,0,*7C
1504929889.51,53951,14.19,73436.5,3.89,-23.89,-23.53,0,*73
1504929890.73,53952,14.19,73452.3,3.87,-24.05,-23.75,0,*79
1504929892.01,53953,14.19,73456.3,3.87,-24.41,-23.99,0,*7A
1504929893.25,53954,14.19,73454.5,3.87,-23.99,-23.59,0,*73
1504929894.45,53955,14.19,73454.3,3.89,-23.89,-23.39,0,*7B
1504929895.68,53956,14.19,73462.3,3.87,-24.05,-23.43,0,*78
1504929896.93,53957,14.13,73462.0,3.93,-23.65,-23.23,0,*7B
1504929898.13,53958,14.19,73462.3,3.89,-23.75,-23.39,0,*75
1504929899.33,53959,14.19,73466.8,3.89,-23.59,-23.39,0,*7A
1504929900.55,53960,14.19,73474.5,3.93,-23.89,-23.65,0,*7F
1504929901.77,53961,14.19,73462.0,3.93,-23.23,-23.09,0,*74
1504929902.99,53962,14.19,73458.8,3.95,-23.79,-23.75,0,*75
1504929904.23,53963,14.19,73458.3,3.93,-24.15,-23.95,0,*71
1504929905.45,53964,14.19,73456.5,3.93,-23.95,-23.79,0,*7B
1504929906.7,53965,14.19,73452.0,3.95,-23.75,-23.49,0,*71
1504929907.97,53966,14.19,73462.0,3.95,-24.25,-23.95,0,*71
1504929909.21,53967,14.19,73462.0,3.97,-24.31,-24.31,0,*7E
1504929910.43,53968,14.19,73448.3,3.95,-24.57,-24.47,0,*72
1504929911.7,53969,14.19,73444.8,3.95,-24.87,-24.87,0,*72
1504929912.91,53970,14.19,73440.0,3.95,-24.93,-24.93,0,*7A
1504929914.14,53971,14.19,73440.3,3.95,-24.93,-24.87,0,*7E
1504929915.34,53972,14.19,73436.3,3.93,-24.97,-24.97,0,*7E
1504929916.52,53973,14.19,73442.8,3.93,-24.97,-24.93,0,*7B
1504929917.74,53974,14.19,73444.3,3.93,-24.87,-24.97,0,*79
1504929918.93,53975,14.19,73444.8,3.93,-25.09,-24.93,0,*7B
1504929920.18,53976,14.19,73444.5,3.95,-25.13,-25.03,0,*7D
1504929921.39,53977,14.19,73438.8,3.93,-25.29,-25.19,0,*78
1504929922.61,53978,14.19,73440.5,3.93,-25.29,-25.09,0,*76
1504929923.8,53979,14.13,73436.8,3.93,-25.35,-25.35,0,*75
1504929925.0,53980,14.19,73442.8,3.89,-25.39,-25.35,0,*74
1504929926.21,53981,14.19,73436.8,3.89,-25.39,-25.39,0,*79
1504929927.43,53982,14.19,73432.3,3.87,-25.49,-25.39,0,*73
1504929928.66,53983,14.19,73430.0,3.87,-25.49,-25.49,0,*75
1504929929.88,53984,14.19,73428.8,3.87,-25.39,-25.23,0,*79
1504929931.1,53985,14.19,73432.0,3.87,-25.39,-25.35,0,*7F
1504929932.3,53986,14.19,73428.8,3.89,-25.39,-25.19,0,*7C
1504929933.52,53987,14.19,73436.5,3.87,-25.35,-25.13,0,*75
1504929934.74,53988,14.19,73436.8,3.87,-25.35,-25.19,0,*70
1504929935.95,53989,14.19,73442.0,3.87,-25.35,-25.19,0,*71
1504929937.17,53990,14.19,73440.8,3.87,-25.35,-25.23,0,*70
1504929938.37,53991,14.19,73448.5,3.85,-25.39,-25.23,0,*7F
1504929939.58,53992,14.19,73448.5,3.85,-25.45,-25.19,0,*7E
1504929940.83,53993,14.19,73442.8,3.83,-25.29,-25.19,0,*73
1504929942.05,53994,14.19,73436.3,3.83,-25.19,-25.09,0,*76
1504929943.29,53995,14.19,73434.0,3.83,-25.29,-25.23,0,*7C
1504929944.51,53996,14.19,73442.0,3.83,-25.39,-25.23,0,*7E
1504929945.73,53997,14.19,73434.5,3.83,-25.23,-25.19,0,*7D
1504929946.97,53998,14.19,73430.0,3.83,-25.19,-25.03,0,*70
1504929948.21,53999,14.19,73432.0,3.83,-25.19,-25.03,0,*71
1504929949.41,54000,14.19,73424.8,3.85,-25.23,-25.19,0,*7B
1504929950.62,54001,14.13,73426.0,3.83,-25.39,-25.19,0,*77
1504929951.82,54002,14.19,73438.8,3.85,-25.19,-25.09,0,*71
1504929953.04,54003,14.19,73434.5,3.83,-25.19,-24.93,0,*74
1504929954.31,54004,14.19,73436.3,3.83,-25.03,-24.87,0,*7D
1504929955.53,54005,14.19,73430.0,3.83,-25.09,-24.77,0,*79
1504929956.79,54006,14.19,73428.0,3.83,-24.71,-24.61,0,*73
1504929958.06,54007,14.19,73436.0,3.83,-25.03,-24.87,0,*7E
1504929959.28,54008,14.19,73434.3,3.83,-25.23,-25.09,0,*74
1504929960.53,54009,14.19,73446.3,3.83,-25.29,-25.09,0,*7F
1504929961.77,54010,14.19,73448.5,3.83,-25.09,-25.03,0,*7F
1504929963.02,54011,14.19,73444.5,3.83,-24.57,-24.21,0,*75
1504929964.22,54012,14.19,73446.8,3.85,-24.77,-24.61,0,*76
1504929965.43,54013,14.19,73446.8,3.83,-24.93,-24.93,0,*76
1504929966.63,54014,14.19,73450.5,3.85,-25.23,-25.19,0,*7E
1504929967.84,54015,14.19,73446.8,3.83,-25.19,-25.19,0,*70
1504929969.06,54016,14.19,73448.8,3.83,-25.23,-25.19,0,*7A
1504929970.28,54017,14.19,73450.0,3.85,-25.39,-25.29,0,*75
1504929971.54,54018,14.19,73448.3,3.83,-25.55,-25.39,0,*77
1504929972.76,54019,14.13,73446.8,3.85,-25.61,-25.45,0,*7C
1504929974.03,54020,14.19,73450.8,3.83,-25.71,-25.45,0,*71
1504929975.28,54021,14.19,73448.5,3.83,-25.61,-25.45,0,*71
1504929976.48,54022,14.19,73454.3,3.81,-25.65,-25.49,0,*78
1504929977.73,54023,14.19,73452.3,3.83,-25.61,-25.45,0,*73
1504929978.97,54024,14.19,73456.3,3.83,-25.45,-25.39,0,*79
1504929980.19,54025,14.19,73458.5,3.81,-25.61,-25.45,0,*77
1504929981.4,54026,14.19,73456.8,3.81,-25.61,-25.49,0,*78
1504929982.65,54027,14.19,73454.3,3.79,-25.81,-25.65,0,*7E
1504929983.88,54028,14.13,73450.8,3.81,-25.75,-25.49,0,*73
1504929985.16,54029,14.19,73450.8,3.79,-25.81,-25.71,0,*75
1504929986.42,54030,14.19,73452.3,3.79,-25.71,-25.65,0,*77
1504929987.71,54031,14.19,73456.0,3.79,-25.71,-25.71,0,*73
1504929988.98,54032,14.19,73456.5,3.79,-25.81,-25.71,0,*7F
1504929990.27,54033,14.19,73460.3,3.79,-25.71,-25.71,0,*71
1504929991.55,54034,14.19,73462.5,3.79,-25.81,-25.71,0,*79
1504929992.8,54035,14.19,73456.0,3.79,-25.65,-25.55,0,*74
1504929994.08,54036,14.19,73456.3,3.75,-25.75,-25.71,0,*7C
1504929995.34,54037,14.19,73458.3,3.75,-25.71,-25.61,0,*78
1504929996.62,54038,14.19,73458.0,3.75,-25.75,-25.71,0,*72
1504929997.85,54039,14.19,73454.3,3.77,-25.71,-25.65,0,*70
1504929999.09,54040,14.19,73456.5,3.77,-25.71,-25.65,0,*7E
1504930000.37,54041,14.19,73458.3,3.75,-25.71,-25.71,0,*78
1504930001.65,54042,14.19,73456.5,3.75,-25.75,-25.75,0,*7B
1504930002.89,54043,14.19,73458.8,3.75,-25.75,-25.87,0,*77
1504930004.15,54044,14.19,73462.3,3.75,-25.87,-25.75,0,*70
1504930005.38,54045,14.19,73460.5,3.73,-25.87,-25.81,0,*7C
1504930006.61,54046,14.19,73460.3,3.73,-25.87,-25.75,0,*74
1504930007.81,54047,14.19,73464.3,3.73,-25.87,-25.87,0,*78
1504930009.01,54048,14.19,73460.5,3.73,-25.87,-25.87,0,*77
1504930010.23,54049,14.19,73464.0,3.71,-25.91,-25.91,0,*74
1504930011.49,54050,14.19,73466.3,3.73,-25.75,-25.75,0,*7E
1504930012.76,54051,14.19,73464.3,3.71,-25.81,-25.81,0,*7D
1504930014.01,54052,14.19,73464.0,3.71,-25.91,-25.81,0,*7F
1504930015.28,54053,14.19,73466.0,3.71,-25.81,-25.81,0,*7F
1504930016.55,54054,14.19,73470.3,3.67,-25.71,-25.65,0,*7A
1504930017.84,54055,14.19,73470.0,3.67,-25.71,-25.71,0,*7E
1504930019.12,54056,14.19,73464.8,3.67,-25.71,-25.55,0,*7B
1504930020.41,54057,14.19,73470.8,3.67,-25.71,-25.55,0,*7A
1504930021.65,54058,14.19,73470.5,3.65,-25.71,-25.65,0,*74
1504930022.88,54059,14.19,73468.3,3.65,-25.49,-25.45,0,*7C
1504930024.13,54060,14.19,73470.3,3.65,-25.55,-25.49,0,*77
1504930025.36,54061,14.19,73472.0,3.65,-25.49,-25.45,0,*77
1504930026.6,54062,14.19,73480.3,3.67,-25.45,-25.35,0,*7D
1504930027.85,54063,14.19,73478.3,3.65,-25.29,-25.29,0,*79
1504930029.08,54064,14.19,73474.0,3.67,-24.97,-24.97,0,*7C
1504930030.33,54065,14.19,73468.5,3.67,-25.03,-25.13,0,*7C
1504930031.54,54066,14.19,73460.5,3.65,-24.97,-25.13,0,*71
1504930032.82,54067,14.19,73458.0,3.67,-25.03,-25.29,0,*77
1504930034.04,54068,14.19,73450.0,3.67,-25.19,-25.35,0,*7E
1504930035.29,54069,14.19,73448.0,3.67,-25.29,-25.35,0,*7C
1504930036.53,54070,14.19,73442.0,3.67,-25.45,-25.35,0,*7E
1504930037.76,54071,14.19,73448.8,3.65,-25.35,-25.45,0,*7D
1504930039.01,54072,14.19,73446.3,3.67,-25.45,-25.49,0,*77
1504930040.25,54073,14.19,73446.8,3.65,-25.55,-25.49,0,*75
1504930041.52,54074,14.19,73440.3,3.65,-25.55,-25.55,0,*7F
1504930042.76,54075,14.19,73436.5,3.65,-25.55,-25.65,0,*7D
1504930043.97,54076,14.19,73438.0,3.65,-25.65,-25.65,0,*7D
1504930045.2,54077,14.19,73438.0,3.65,-25.65,-25.81,0,*76
1504930046.43,54078,14.19,73438.5,3.65,-25.65,-25.55,0,*70
1504930047.7,54079,14.19,73438.0,3.65,-25.55,-25.55,0,*72
1504930048.95,54080,14.19,73432.8,3.61,-25.61,-25.55,0,*77
1504930050.18,54081,14.19,73438.3,3.63,-25.61,-25.55,0,*74
1504930051.41,54082,14.19,73440.5,3.63,-25.61,-25.55,0,*77
1504930052.62,54083,14.19,73440.5,3.63,-25.61,-25.61,0,*71
1504930053.82,54084,14.19,73440.5,3.63,-25.61,-25.49,0,*7C
1504930055.06,54085,14.19,73444.8,3.61,-25.49,-25.49,0,*75
1504930056.28,54086,14.19,73448.0,3.61,-25.39,-25.35,0,*7A
1504930057.54,54087,14.19,73450.3,3.63,-25.55,-25.55,0,*75
1504930058.77,54088,14.19,73452.5,3.63,-25.61,-25.55,0,*7D
1504930060.03,54089,14.19,73452.5,3.61,-25.55,-25.49,0,*74
1504930061.23,54090,14.19,73456.8,3.63,-25.61,-25.49,0,*79
1504930062.47,54091,14.19,73460.0,3.63,-25.71,-25.49,0,*79
1504930063.73,54092,14.19,73460.8,3.65,-25.55,-25.45,0,*76
1504930065.01,54093,14.19,73456.8,3.61,-25.71,-25.55,0,*74
1504930066.3,54094,14.19,73458.8,3.61,-25.71,-25.55,0,*73
1504930067.56,54095,14.19,73462.3,3.63,-25.71,-25.55,0,*70
1504930068.79,54096,14.19,73466.3,3.61,-25.61,-25.49,0,*7D
1504930070.03,54097,14.19,73464.5,3.65,-25.45,-25.45,0,*72
1504930071.26,54098,14.19,73468.0,3.61,-25.61,-25.49,0,*73
1504930072.5,54099,14.19,73466.3,3.61,-25.49,-25.49,0,*78
1504930073.75,54100,14.19,73468.5,3.61,-25.55,-25.39,0,*73
1504930075.01,54101,14.19,73470.8,3.61,-25.55,-25.49,0,*75
1504930076.22,54102,14.19,73468.0,3.63,-25.61,-25.49,0,*73
1504930077.45,54103,14.13,73470.0,3.59,-25.55,-25.39,0,*7B
1504930078.69,54104,14.19,73470.5,3.59,-25.45,-25.45,0,*76
1504930079.92,54105,14.19,73466.5,3.59,-25.61,-25.45,0,*71
1504930081.17,54106,14.19,73460.0,3.59,-25.55,-25.45,0,*75
1504930082.39,54107,14.19,73454.3,3.61,-25.35,-25.19,0,*70
1504930083.61,54108,14.19,73454.5,3.61,-25.35,-25.23,0,*76
1504930084.83,54109,14.19,73454.8,3.61,-25.39,-25.35,0,*7C
1504930086.09,54110,14.19,73442.8,3.57,-25.49,-25.45,0,*71
1504930087.31,54111,14.19,73440.3,3.59,-25.45,-25.39,0,*79
1504930088.58,54112,14.19,73438.3,3.57,-25.45,-25.45,0,*7F
1504930089.8,54113,14.19,73440.8,3.59,-25.61,-25.45,0,*76
1504930091.06,54114,14.19,73438.5,3.59,-25.75,-25.55,0,*75
1504930092.27,54115,14.19,73444.8,3.59,-25.65,-25.61,0,*72
1504930093.53,54116,14.19,73442.0,3.57,-25.81,-25.61,0,*75
1504930094.79,54117,14.19,73442.5,3.57,-25.81,-25.61,0,*74
1504930096.05,54118,14.19,73448.5,3.57,-25.71,-25.61,0,*74
1504930097.31,54119,14.19,73446.0,3.59,-25.75,-25.55,0,*78
1504930098.54,54120,14.19,73448.0,3.59,-25.75,-25.61,0,*75
1504930099.8,54121,14.19,73448.3,3.57,-25.81,-25.65,0,*75
1504930101.07,54122,14.19,73454.5,3.57,-25.71,-25.61,0,*7D